[[{"header":{"parameterUnit":"m.s-1","parameterCategory":1,"la1":30.2991,"la2":30.254,"lo1":-89.0895,"lo2":-89.0444,"dy":0.0017,"dx":0.0017,"nx":28,"ny":28,"refTime":"2025-08-30T09:00:00:Z","depth":0,"parameterNumber":2,"parameterNumberName":"U-component_of_WINDS"},"data":[0,0,0,0,0,0,0,0,0,0,0,0,0,0,0,0,0,0,0,0,0,0,0,0,0,0,0,0,0,0,0,0,0,0,0,0,0,0,0,0,0,0,0,0,0,0,0,0,0,0,0,0,0,0,0,0,0,0,-0.1047,-0.1046,0,-0.1026,-0.1025,-0.1025,-0.1087,-0.1089,-0.1091,-0.1093,-0.1069,-0.1066,-0.1064,0,0,0,0,0,0,0,0,0,0,0,0,0,-0.114,-0.1138,-0.1047,-0.1046,-0.1046,-0.1026,-0.1025,-0.1025,-0.1087,-0.1089,-0.1091,-0.1094,-0.1069,-0.1066,-0.1064,0,0,0,0,0,0,0,0,0,0,0,0,0,-0.1107,-0.1137,-0.1047,-0.1074,-0.1077,-0.1026,-0.1025,-0.1025,-0.1086,-0.1089,-0.1092,-0.1095,-0.107,-0.1067,-0.1063,-0.0983,0,0,-0.1052,-0.105,0,0,0,0,0,0,0,0,-0.1109,-0.1103,-0.1071,-0.1072,-0.1075,-0.1062,-0.1049,-0.1011,-0.1086,-0.1083,-0.1093,-0.1096,-0.1064,-0.1061,-0.1051,-0.0982,-0.0981,-0.1052,-0.105,-0.1048,-0.1047,0,0,0,0,0,0,0,-0.1111,-0.1105,-0.1038,-0.107,-0.1073,-0.1088,-0.1086,-0.1042,-0.1057,-0.1083,-0.1088,-0.1084,-0.1066,-0.1054,-0.105,-0.0981,-0.1052,-0.1049,-0.1046,-0.1045,-0.0847,-0.0844,0,0,0,0,0,0,-0.111,-0.1106,-0.1039,-0.1038,-0.1099,-0.1084,-0.1082,-0.1063,-0.1058,-0.106,-0.1082,-0.1087,-0.1059,-0.1055,-0.105,-0.0955,-0.1048,-0.1045,-0.1042,-0.085,-0.0846,-0.0843,0,0,0,0,0,0,-0.1111,-0.1103,-0.104,-0.1073,-0.1066,-0.1079,-0.1057,-0.1061,-0.105,-0.1057,-0.106,-0.1067,-0.1061,-0.1055,-0.1,-0.0955,-0.1043,-0.104,-0.0853,-0.0848,-0.0844,-0.0766,0,0,0,0,0,0,-0.1114,-0.1103,-0.1073,-0.1072,-0.1064,-0.0989,-0.1055,-0.1059,-0.1043,-0.105,-0.1044,-0.1046,-0.1063,-0.1005,-0.0996,-0.0952,-0.1037,-0.0857,-0.0851,-0.0846,-0.0772,-0.0759,-0.0748,0,0,0,0,0,-0.1117,-0.1051,-0.1071,-0.1063,-0.1026,-0.0987,-0.0982,-0.1004,-0.104,-0.1009,-0.1014,-0.1046,-0.0963,-0.0999,-0.0989,-0.0943,-0.086,-0.0853,-0.0846,-0.0778,-0.0762,-0.0748,0,0,0,0,0,0,-0.1045,-0.1051,-0.1073,-0.1005,-0.0995,-0.0997,-0.0959,-0.0986,-0.0965,-0.0972,-0.0999,-0.0997,-0.0936,-0.0935,-0.0975,-0.0866,-0.0917,-0.0908,-0.0868,-0.0853,-0.0841,-0.0841,-0.1034,0,0,0,0,0,-0.1021,-0.0989,-0.0997,-0.0936,-0.093,-0.0945,-0.0929,-0.0947,-0.0937,-0.0933,-0.0934,-0.0922,-0.0894,-0.0874,-0.0848,-0.0774,-0.0773,-0.0738,-0.0726,-0.0716,-0.0706,-0.0666,-0.0651,-0.082,-0.082,-0.082,0,0,-0.0971,-0.0971,-0.0949,-0.0921,-0.0915,-0.0881,-0.0941,-0.0902,-0.0876,-0.0926,-0.0874,-0.0875,-0.0864,-0.0799,-0.077,-0.0796,-0.066,-0.0707,-0.0699,-0.0695,-0.0658,-0.0642,-0.0627,-0.0815,-0.0816,-0.0817,0,0,-0.0862,-0.086,-0.0808,-0.0802,-0.0794,-0.0805,-0.0793,-0.0792,-0.0794,-0.0743,-0.078,-0.0751,-0.0701,-0.0692,-0.068,-0.0572,-0.06,-0.0563,-0.0497,-0.0458,-0.0445,-0.0433,-0.0392,-0.0377,-0.0555,-0.0554,-0.0554,0,-0.08,-0.075,-0.0778,-0.0737,-0.0723,-0.077,-0.0718,-0.0711,-0.0693,-0.0683,-0.0713,-0.0652,-0.0648,-0.0581,-0.0555,-0.0545,-0.0532,-0.0562,-0.0445,-0.0433,-0.0422,-0.0384,-0.0369,-0.055,-0.055,-0.0551,-0.0551,0,-0.0675,-0.064,-0.06,-0.0583,-0.0566,-0.0519,-0.054,-0.0519,-0.054,-0.0548,-0.0496,-0.0494,-0.0468,-0.0455,-0.0474,-0.039,-0.0406,-0.044,-0.0491,-0.0401,-0.0365,-0.0351,-0.0543,-0.0545,-0.0546,-0.0547,0,0,-0.0515,-0.0517,-0.0501,-0.0495,-0.049,-0.0463,-0.042,-0.0397,-0.0378,-0.0366,-0.0329,-0.0287,-0.0319,-0.0307,-0.0326,-0.0292,-0.0204,-0.033,-0.033,-0.0304,-0.0111,-0.0083,-0.0066,-0.0225,-0.0222,-0.022,-0.0111,0,-0.0406,-0.0331,-0.0356,-0.028,-0.0248,-0.0293,-0.0256,-0.0249,-0.0256,-0.023,-0.0239,-0.0208,-0.0253,-0.0246,-0.0215,-0.0221,-0.0165,-0.023,-0.0189,-0.0187,-0.0186,-0.0047,-0.0018,0.0086,-0.0098,-0.0095,-0.0094,0,-0.0267,-0.0251,-0.0171,-0.0174,-0.0161,-0.0126,-0.0107,-0.0082,-0.0076,-0.0084,-0.0072,-0.0099,-0.0056,-0.0111,-0.0052,-0.0096,-0.0081,-0.0082,-0.0079,-0.0073,-0.0132,-0.0035,0.0118,0.0134,-0.0072,-0.0074,-0.0076,0,-0.0155,-0.0114,-0.0061,-0.0055,-0.0056,-0.0031,-0.003,-0.0027,-0.0012,0.0004,0.0014,0.0035,0.0047,0.0064,0.0043,0.0005,0.0106,0.0049,0.0102,0.0102,0.0128,0.0128,0.0289,0.0132,0.0132,0.0132,0.0131,0,-0.0029,0.0022,-0.0011,0.0022,0.0077,0.0046,0.0102,0.0097,0.01,0.0131,0.0092,0.0122,0.0091,0.0118,0.0102,0.0154,0.0159,0.0155,0.015,0.016,0.0161,0.0173,0.0166,0.0136,0.0135,0.0134,0.0133,0,0.0108,0.0087,0.0142,0.0134,0.0133,0.0175,0.0168,0.0198,0.0186,0.0226,0.0234,0.0215,0.0245,0.0224,0.0255,0.0243,0.0312,0.0296,0.0311,0.0308,0.0362,0.0359,0.0539,0.0562,0.0388,0.0389,0.0391,0,0.0192,0.023,0.0225,0.0243,0.0245,0.0274,0.0289,0.0259,0.0276,0.0285,0.0314,0.034,0.036,0.041,0.0399,0.0422,0.0408,0.0469,0.0412,0.042,0.0412,0.0412,0.0416,0.0483,0.0485,0.0486,0.0488,0,0.0344,0.0331,0.0354,0.0372,0.0391,0.0404,0.0414,0.0431,0.04,0.0421,0.0451,0.0466,0.0495,0.0523,0.0541,0.0541,0.0511,0.0505,0.0519,0.0532,0.0539,0.0538,0.0346,0.0502,0.0501,0.05,0.0499,0.0498,0.0459,0.049,0.0492,0.0518,0.0521,0.0532,0.056,0.0549,0.0573,0.0595,0.0575,0.0611,0.0614,0.0635,0.0639,0.0666,0.0642,0.0661,0.0667,0.0673,0.0682,0.0531,0.0669,0.0669,0.0668,0.0668,0.0667,0,0.0611,0.0609,0.0633,0.0648,0.0668,0.0634,0.0643,0.0663,0.0694,0.0699,0.0719,0.0752,0.0777,0.0767,0.0789,0.0813,0.08,0.0821,0.0821,0.0821,0.0702,0.0689,0.0831,0.0831,0.0831,0.0831,0.0831,0.0831,0.0693,0.0745,0.0732,0.0785,0.0782,0.0816,0.0824,0.0833,0.0837,0.0876,0.0896,0.0888,0.0888,0.0909,0.093,0.0927,0.0938,0.0965,0.0956,0.0846,0.083,0.0815,0.0802,0.0967,0.0967,0.1074,0.1075,0.1076]},{"header":{"parameterUnit":"m.s-1","parameterCategory":1,"la1":30.2991,"la2":30.254,"lo1":-89.0895,"lo2":-89.0444,"dy":0.0017,"dx":0.0017,"nx":28,"ny":28,"refTime":"2025-08-30T09:00:00:Z","depth":0,"parameterNumber":3,"parameterNumberName":"V-component_of_WINDS"},"data":[0,0,0,0,0,0,0,0,0,0,0,0,0,0,0,0,0,0,0,0,0,0,0,0,0,0,0,0,0,0,0,0,0,0,0,0,0,0,0,0,0,0,0,0,0,0,0,0,0,0,0,0,0,0,0,0,0,0,0.3945,0.3945,0,0.3946,0.3946,0.3946,0.3935,0.3935,0.3934,0.3934,0.3935,0.3935,0.3935,0,0,0,0,0,0,0,0,0,0,0,0,0,0.3933,0.3933,0.3945,0.3945,0.3945,0.3946,0.3946,0.3946,0.3935,0.3935,0.3934,0.3934,0.3935,0.3935,0.3935,0,0,0,0,0,0,0,0,0,0,0,0,0,0.3936,0.3933,0.3945,0.394,0.3939,0.3946,0.3946,0.3946,0.3935,0.3935,0.3934,0.3934,0.3934,0.3935,0.3935,0.3947,0,0,0.3937,0.3937,0,0,0,0,0,0,0,0,0.3936,0.3937,0.394,0.394,0.394,0.394,0.3942,0.3946,0.3935,0.3937,0.3934,0.3934,0.3937,0.3937,0.3938,0.3947,0.3947,0.3937,0.3937,0.3937,0.3937,0,0,0,0,0,0,0,0.3936,0.3937,0.3945,0.394,0.394,0.3937,0.3937,0.3943,0.3939,0.3936,0.3936,0.3936,0.3936,0.3938,0.3938,0.3947,0.3937,0.3937,0.3937,0.3937,0.3964,0.3965,0,0,0,0,0,0,0.3937,0.3937,0.3945,0.3945,0.3937,0.3937,0.3937,0.394,0.3939,0.3938,0.3936,0.3935,0.3937,0.3937,0.3938,0.3951,0.3937,0.3938,0.3938,0.3964,0.3965,0.3965,0,0,0,0,0,0,0.3936,0.3937,0.3945,0.3941,0.3941,0.3938,0.3941,0.394,0.3942,0.3939,0.3938,0.3938,0.3937,0.3937,0.3945,0.3951,0.3938,0.3938,0.3963,0.3964,0.3965,0.3978,0,0,0,0,0,0,0.3936,0.3937,0.3942,0.3941,0.3942,0.3952,0.3942,0.3941,0.3943,0.3941,0.3941,0.394,0.3936,0.3944,0.3945,0.3951,0.3938,0.3963,0.3964,0.3965,0.3977,0.3979,0.398,0,0,0,0,0,0.3936,0.3946,0.3942,0.3943,0.3948,0.3953,0.3953,0.3949,0.3943,0.3948,0.3946,0.394,0.395,0.3945,0.3946,0.3952,0.3962,0.3964,0.3964,0.3976,0.3978,0.398,0,0,0,0,0,0,0.3948,0.3946,0.3942,0.3952,0.3952,0.3951,0.3956,0.3952,0.3954,0.3953,0.3947,0.3947,0.3955,0.3954,0.3949,0.3963,0.3955,0.3956,0.3963,0.3966,0.3968,0.3968,0.3939,0,0,0,0,0,0.3952,0.3956,0.3954,0.3963,0.3963,0.396,0.3962,0.3958,0.3959,0.3959,0.3958,0.3958,0.3961,0.3963,0.3966,0.3976,0.3976,0.3981,0.3983,0.3985,0.3986,0.3991,0.3993,0.3968,0.3968,0.3968,0,0,0.396,0.3959,0.3962,0.3965,0.3965,0.397,0.396,0.3965,0.3968,0.396,0.3966,0.3965,0.3965,0.3974,0.3978,0.3974,0.3992,0.3986,0.3987,0.3988,0.3992,0.3994,0.3996,0.3969,0.3969,0.3969,0,0,0.3977,0.3977,0.3984,0.3984,0.3984,0.3982,0.3984,0.3982,0.3981,0.3988,0.3981,0.3984,0.399,0.399,0.3991,0.4007,0.4002,0.4008,0.4018,0.4023,0.4025,0.4026,0.4032,0.4034,0.4009,0.4009,0.4009,0,0.3987,0.3994,0.3989,0.3994,0.3995,0.3987,0.3995,0.3995,0.3996,0.3997,0.3992,0.3998,0.3998,0.4006,0.401,0.4011,0.4012,0.4008,0.4025,0.4026,0.4028,0.4033,0.4035,0.401,0.401,0.401,0.401,0,0.4006,0.4011,0.4016,0.4017,0.4019,0.4026,0.4021,0.4023,0.4019,0.4017,0.4024,0.4022,0.4025,0.4026,0.4023,0.4034,0.4031,0.4026,0.4018,0.4031,0.4036,0.4038,0.4011,0.4011,0.401,0.401,0,0,0.4032,0.4029,0.4031,0.4031,0.403,0.4034,0.4039,0.4041,0.4043,0.4044,0.4048,0.4052,0.4047,0.4048,0.4044,0.4048,0.406,0.4042,0.4042,0.4046,0.4072,0.4076,0.4079,0.4057,0.4057,0.4057,0.4072,0,0.4049,0.4058,0.4053,0.4063,0.4067,0.4059,0.4063,0.4063,0.4061,0.4063,0.4061,0.4064,0.4057,0.4057,0.4061,0.4058,0.4066,0.4057,0.4061,0.4061,0.4061,0.4081,0.4086,0.41,0.4074,0.4074,0.4075,0,0.407,0.4071,0.4081,0.4079,0.408,0.4084,0.4085,0.4088,0.4087,0.4085,0.4085,0.408,0.4085,0.4077,0.4083,0.4077,0.4078,0.4077,0.4077,0.4078,0.4069,0.4082,0.4105,0.4107,0.4077,0.4077,0.4077,0,0.4087,0.4091,0.4098,0.4098,0.4095,0.4099,0.4098,0.4096,0.4097,0.4098,0.4099,0.41,0.4101,0.4101,0.4096,0.4091,0.4103,0.4095,0.4101,0.4102,0.4105,0.4105,0.4128,0.4105,0.4105,0.4105,0.4105,0,0.4107,0.4113,0.4106,0.411,0.4117,0.4111,0.4118,0.4116,0.4114,0.4118,0.411,0.4113,0.4107,0.4109,0.4105,0.411,0.4111,0.4109,0.4108,0.411,0.411,0.4111,0.411,0.4106,0.4105,0.4105,0.4105,0,0.4128,0.4123,0.413,0.4126,0.4126,0.4131,0.4128,0.4131,0.4128,0.4132,0.4133,0.4127,0.413,0.4125,0.4126,0.4123,0.4131,0.4129,0.4132,0.4131,0.4138,0.4138,0.4163,0.4165,0.4141,0.4141,0.4141,0,0.4141,0.4146,0.4143,0.4144,0.4143,0.4146,0.4147,0.4141,0.4142,0.4141,0.4144,0.4146,0.4147,0.415,0.4147,0.4148,0.4145,0.4153,0.4145,0.4147,0.4145,0.4145,0.4145,0.4155,0.4156,0.4156,0.4156,0,0.4165,0.4162,0.4163,0.4164,0.4165,0.4166,0.4165,0.4167,0.416,0.4162,0.4164,0.4164,0.4165,0.4167,0.4167,0.4165,0.416,0.4159,0.416,0.4163,0.4164,0.4163,0.4137,0.4158,0.4158,0.4158,0.4158,0.4158,0.4182,0.4186,0.4184,0.4186,0.4185,0.4184,0.4187,0.4184,0.4185,0.4186,0.4182,0.4185,0.4182,0.4182,0.4181,0.4182,0.4179,0.4181,0.4182,0.4182,0.4184,0.4164,0.4182,0.4182,0.4182,0.4182,0.4182,0,0.4205,0.4203,0.4205,0.4205,0.4206,0.42,0.4199,0.42,0.4203,0.4201,0.4202,0.4204,0.4205,0.4201,0.4201,0.4204,0.4201,0.4204,0.4204,0.4204,0.4187,0.4186,0.4206,0.4206,0.4206,0.4206,0.4206,0.4206,0.4218,0.4224,0.422,0.4225,0.4223,0.4225,0.4225,0.4225,0.4223,0.4226,0.4226,0.4224,0.4221,0.4221,0.4221,0.422,0.4221,0.4225,0.4222,0.4207,0.4205,0.4203,0.4201,0.4225,0.4225,0.4239,0.4239,0.4239]}]]